Time,TemperatureF,DewpointF,PressureIn,WindDirection,WindDirectionDegrees,WindSpeedMPH,WindSpeedGustMPH,Humidity,HourlyPrecipIn,Conditions,Clouds,dailyrainin,SoftwareType,DateUTC
2013-10-22 00:03:00,76.0,75.7,29.91,North,0,0.0,0.0,99,0.00,,,0.00,WUHU216HW,2013-10-22 05:03:00,
2013-10-22 00:08:00,71.3,71.0,29.91,North,0,0.0,0.0,99,0.00,,,0.00,WUHU216HW,2013-10-22 05:08:00,
2013-10-22 00:13:00,71.3,71.0,29.91,North,0,0.0,0.0,99,0.00,,,0.00,WUHU216HW,2013-10-22 05:13:00,
2013-10-22 00:18:00,64.6,64.4,29.91,North,0,0.0,0.0,99,0.00,,,0.00,WUHU216HW,2013-10-22 05:18:00,
2013-10-22 00:23:00,60.8,58.9,29.91,North,0,0.0,0.0,93,0.00,,,0.00,WUHU216HW,2013-10-22 05:23:00,
2013-10-22 00:28:00,59.4,57.1,29.91,North,0,0.0,0.0,92,0.00,,,0.00,WUHU216HW,2013-10-22 05:28:00,
2013-10-22 00:33:00,57.2,54.4,29.91,North,0,0.0,0.0,90,0.00,,,0.00,WUHU216HW,2013-10-22 05:33:00,
2013-10-22 00:38:00,55.4,52.8,29.91,North,0,0.0,0.0,91,0.00,,,0.00,WUHU216HW,2013-10-22 05:38:00,
2013-10-22 00:43:00,54.5,52.2,29.91,North,0,0.0,0.0,92,0.00,,,0.00,WUHU216HW,2013-10-22 05:43:00,
2013-10-22 00:46:00,54.5,52.2,29.91,North,0,0.0,0.0,92,0.00,,,0.00,WUHU216HW,2013-10-22 05:46:00,
2013-10-22 00:48:00,54.5,52.2,29.91,North,0,0.0,0.0,92,0.00,,,0.00,WUHU216HW,2013-10-22 05:48:00,
2013-10-22 00:53:00,54.5,52.2,29.91,North,0,0.0,0.0,92,0.00,,,0.00,WUHU216HW,2013-10-22 05:53:00,
2013-10-22 01:12:00,95.4,95.0,29.91,North,0,0.0,0.0,99,0.00,,,0.00,WUHU216HW,2013-10-22 06:12:00,
2013-10-22 01:17:00,86.6,86.2,29.91,North,0,0.0,0.0,99,0.00,,,0.00,WUHU216HW,2013-10-22 06:17:00,
2013-10-22 01:22:00,79.2,78.9,29.91,North,0,0.0,0.0,99,0.00,,,0.00,WUHU216HW,2013-10-22 06:22:00,
2013-10-22 01:27:00,73.8,73.5,29.91,North,0,0.0,0.0,99,0.00,,,0.00,WUHU216HW,2013-10-22 06:27:00,
2013-10-22 01:32:00,71.3,71.0,29.91,North,0,0.0,0.0,99,0.00,,,0.00,WUHU216HW,2013-10-22 06:32:00,
2013-10-22 01:37:00,68.4,68.1,29.91,North,0,0.0,0.0,99,0.00,,,0.00,WUHU216HW,2013-10-22 06:37:00,
2013-10-22 01:42:00,68.4,68.1,29.91,North,0,0.0,0.0,99,0.00,,,0.00,WUHU216HW,2013-10-22 06:42:00,
2013-10-22 01:47:00,62.8,61.9,29.91,North,0,0.0,0.0,97,0.00,,,0.00,WUHU216HW,2013-10-22 06:47:00,
2013-10-22 01:52:00,61.2,60.3,29.91,North,0,0.0,0.0,97,0.00,,,0.00,WUHU216HW,2013-10-22 06:52:00,
2013-10-22 01:57:00,59.4,58.5,29.91,North,0,0.0,0.0,97,0.00,,,0.00,WUHU216HW,2013-10-22 06:57:00,
2013-10-22 02:02:00,59.0,57.9,29.91,North,0,0.0,0.0,96,0.00,,,0.00,WUHU216HW,2013-10-22 07:02:00,
2013-10-22 02:07:00,59.0,57.9,29.91,North,0,0.0,0.0,96,0.00,,,0.00,WUHU216HW,2013-10-22 07:07:00,
2013-10-22 02:33:00,95.0,94.7,29.91,North,0,0.0,0.0,99,0.00,,,0.00,WUHU216HW,2013-10-22 07:33:00,
2013-10-22 02:38:00,88.7,88.4,29.91,North,0,0.0,0.0,99,0.00,,,0.00,WUHU216HW,2013-10-22 07:38:00,
2013-10-22 02:43:00,82.3,81.9,29.91,North,0,0.0,0.0,99,0.00,,,0.00,WUHU216HW,2013-10-22 07:43:00,
2013-10-22 02:48:00,77.8,77.5,29.91,North,0,0.0,0.0,99,0.00,,,0.00,WUHU216HW,2013-10-22 07:48:00,
2013-10-22 02:53:00,74.2,73.9,29.91,North,0,0.0,0.0,99,0.00,,,0.00,WUHU216HW,2013-10-22 07:53:00,
2013-10-22 02:58:00,72.2,71.9,29.91,North,0,0.0,0.0,99,0.00,,,0.00,WUHU216HW,2013-10-22 07:58:00,
2013-10-22 03:03:00,70.2,69.9,29.91,North,0,0.0,0.0,99,0.00,,,0.00,WUHU216HW,2013-10-22 08:03:00,
2013-10-22 03:08:00,67.5,67.2,29.91,North,0,0.0,0.0,99,0.00,,,0.00,WUHU216HW,2013-10-22 08:08:00,
2013-10-22 03:13:00,64.4,64.2,29.91,North,0,0.0,0.0,99,0.00,,,0.00,WUHU216HW,2013-10-22 08:13:00,
2013-10-22 03:17:00,63.9,63.6,29.91,North,0,0.0,0.0,99,0.00,,,0.00,WUHU216HW,2013-10-22 08:17:00,
2013-10-22 03:18:00,63.9,63.6,29.91,North,0,0.0,0.0,99,0.00,,,0.00,WUHU216HW,2013-10-22 08:18:00,
2013-10-22 03:23:00,63.9,63.6,29.91,North,0,0.0,0.0,99,0.00,,,0.00,WUHU216HW,2013-10-22 08:23:00,
2013-10-22 03:55:00,95.0,94.7,29.91,North,0,0.0,0.0,99,0.00,,,0.00,WUHU216HW,2013-10-22 08:55:00,
2013-10-22 04:00:00,90.4,90.0,29.91,North,0,0.0,0.0,99,0.00,,,0.00,WUHU216HW,2013-10-22 09:00:00,
2013-10-22 04:05:00,85.0,84.6,29.91,North,0,0.0,0.0,99,0.00,,,0.00,WUHU216HW,2013-10-22 09:05:00,
2013-10-22 04:10:00,81.0,80.6,29.91,North,0,0.0,0.0,99,0.00,,,0.00,WUHU216HW,2013-10-22 09:10:00,
2013-10-22 04:15:00,79.2,78.9,29.91,North,0,0.0,0.0,99,0.00,,,0.00,WUHU216HW,2013-10-22 09:15:00,
2013-10-22 04:20:00,75.4,75.2,29.92,North,0,0.0,0.0,99,0.00,,,0.00,WUHU216HW,2013-10-22 09:20:00,
2013-10-22 04:25:00,73.4,73.2,29.92,North,0,0.0,0.0,99,0.00,,,0.00,WUHU216HW,2013-10-22 09:25:00,
2013-10-22 04:30:00,70.9,70.7,29.92,North,0,0.0,0.0,99,0.00,,,0.00,WUHU216HW,2013-10-22 09:30:00,
2013-10-22 04:34:00,70.6,70.3,29.92,North,0,0.0,0.0,99,0.00,,,0.00,WUHU216HW,2013-10-22 09:34:00,
2013-10-22 04:35:00,70.6,70.3,29.92,North,0,0.0,0.0,99,0.00,,,0.00,WUHU216HW,2013-10-22 09:35:00,
2013-10-22 04:40:00,70.6,70.3,29.92,North,0,0.0,0.0,99,0.00,,,0.00,WUHU216HW,2013-10-22 09:40:00,
2013-10-22 05:22:00,95.9,95.6,29.92,North,0,0.0,0.0,99,0.00,,,0.00,WUHU216HW,2013-10-22 10:22:00,
2013-10-22 05:27:00,93.4,93.1,29.92,North,0,0.0,0.0,99,0.00,,,0.00,WUHU216HW,2013-10-22 10:27:00,
2013-10-22 05:32:00,90.0,89.6,29.92,North,0,0.0,0.0,99,0.00,,,0.00,WUHU216HW,2013-10-22 10:32:00,
2013-10-22 05:37:00,87.3,86.9,29.91,North,0,0.0,0.0,99,0.00,,,0.00,WUHU216HW,2013-10-22 10:37:00,
2013-10-22 05:42:00,82.4,82.1,29.92,North,0,0.0,0.0,99,0.00,,,0.00,WUHU216HW,2013-10-22 10:42:00,
2013-10-22 05:46:00,79.9,79.6,29.92,North,0,0.0,0.0,99,0.00,,,0.00,WUHU216HW,2013-10-22 10:46:00,
2013-10-22 05:47:00,79.9,79.6,29.92,North,0,0.0,0.0,99,0.00,,,0.00,WUHU216HW,2013-10-22 10:47:00,
2013-10-22 05:52:00,79.9,79.6,29.92,North,0,0.0,0.0,99,0.00,,,0.00,WUHU216HW,2013-10-22 10:52:00,
2013-10-22 06:59:00,94.5,94.1,29.92,North,0,0.0,0.0,99,0.00,,,0.00,WUHU216HW,2013-10-22 11:59:00,
2013-10-22 07:03:00,93.6,93.2,29.92,North,0,0.0,0.0,99,0.00,,,0.00,WUHU216HW,2013-10-22 12:03:00,
2013-10-22 07:04:00,93.6,93.2,29.92,North,0,0.0,0.0,99,0.00,,,0.00,WUHU216HW,2013-10-22 12:04:00,
2013-10-22 07:09:00,93.6,93.2,29.92,North,0,0.0,0.0,99,0.00,,,0.00,WUHU216HW,2013-10-22 12:09:00,
2013-10-22 10:43:00,95.0,94.7,29.93,North,0,0.0,0.0,99,0.00,,,0.00,WUHU216HW,2013-10-22 15:43:00,
2013-10-22 10:48:00,91.1,90.7,29.93,North,0,0.0,0.0,99,0.00,,,0.00,WUHU216HW,2013-10-22 15:48:00,
2013-10-22 10:49:00,91.1,90.7,29.93,North,0,0.0,0.0,99,0.00,,,0.00,WUHU216HW,2013-10-22 15:49:00,
2013-10-22 10:53:00,91.1,90.7,29.93,North,0,0.0,0.0,99,0.00,,,0.00,WUHU216HW,2013-10-22 15:53:00,
2013-10-22 10:58:00,91.1,90.7,29.93,North,0,0.0,0.0,99,0.00,,,0.00,WUHU216HW,2013-10-22 15:58:00,
2013-10-22 11:36:00,99.7,85.9,29.91,North,0,0.0,0.0,65,0.00,,,0.00,WUHU216HW,2013-10-22 16:36:00,
2013-10-22 11:41:00,95.2,82.0,29.91,North,0,0.0,0.0,66,0.00,,,0.00,WUHU216HW,2013-10-22 16:41:00,
2013-10-22 11:46:00,91.1,70.4,29.91,North,0,0.0,0.0,51,0.00,,,0.00,WUHU216HW,2013-10-22 16:46:00,
2013-10-22 11:51:00,86.8,63.5,29.91,North,0,0.0,0.0,46,0.00,,,0.00,WUHU216HW,2013-10-22 16:51:00,
2013-10-22 11:56:00,85.9,63.9,29.91,North,0,0.0,0.0,48,0.00,,,0.00,WUHU216HW,2013-10-22 16:56:00,
2013-10-22 12:01:00,81.7,51.2,29.91,North,0,0.0,0.0,35,0.00,,,0.00,WUHU216HW,2013-10-22 17:01:00,
2013-10-22 12:06:00,82.3,39.6,29.91,North,0,0.0,0.0,22,0.00,,,0.00,WUHU216HW,2013-10-22 17:06:00,
2013-10-22 12:07:00,126.7,76.1,29.91,North,0,0.0,0.0,22,0.00,,,0.00,WUHU216HW,2013-10-22 17:07:00,
2013-10-22 12:11:00,126.7,76.1,29.91,North,0,0.0,0.0,22,0.00,,,0.00,WUHU216HW,2013-10-22 17:11:00,
2013-10-22 12:16:00,126.7,76.1,29.91,North,0,0.0,0.0,22,0.00,,,0.00,WUHU216HW,2013-10-22 17:16:00,
2013-10-22 12:26:00,137.5,61.7,29.90,North,0,0.0,0.0,1,0.00,,,0.00,WUHU216HW,2013-10-22 17:26:00,
2013-10-22 12:31:00,120.2,49.0,29.90,North,0,0.0,0.0,9,0.00,,,0.00,WUHU216HW,2013-10-22 17:31:00,
2013-10-22 12:36:00,104.8,44.7,29.90,North,0,0.0,0.0,14,0.00,,,0.00,WUHU216HW,2013-10-22 17:36:00,
2013-10-22 12:41:00,96.3,31.0,29.90,North,0,0.0,0.0,2,0.00,,,0.00,WUHU216HW,2013-10-22 17:41:00,
2013-10-22 12:46:00,93.4,28.8,29.90,North,0,0.0,0.0,3,0.00,,,0.00,WUHU216HW,2013-10-22 17:46:00,
2013-10-22 12:51:00,87.8,24.7,29.89,North,0,0.0,0.0,1,0.00,,,0.00,WUHU216HW,2013-10-22 17:51:00,
2013-10-22 12:56:00,83.9,33.5,29.89,North,0,0.0,0.0,17,0.00,,,0.00,WUHU216HW,2013-10-22 17:56:00,
2013-10-22 13:01:00,80.3,18.8,29.89,North,0,0.0,0.0,2,0.00,,,0.00,WUHU216HW,2013-10-22 18:01:00,
2013-10-22 13:06:00,79.2,17.9,29.89,North,0,0.0,0.0,5,0.00,,,0.00,WUHU216HW,2013-10-22 18:06:00,
2013-10-22 13:11:00,75.4,25.0,29.89,North,0,0.0,0.0,16,0.00,,,0.00,WUHU216HW,2013-10-22 18:11:00,
2013-10-22 13:16:00,75.4,25.0,29.89,North,0,0.0,0.0,16,0.00,,,0.00,WUHU216HW,2013-10-22 18:16:00,
2013-10-22 13:21:00,72.2,12.7,29.89,North,0,0.0,0.0,10,0.00,,,0.00,WUHU216HW,2013-10-22 18:21:00,
2013-10-22 13:25:00,133.6,58.9,29.89,North,0,0.0,0.0,1,0.00,,,0.00,WUHU216HW,2013-10-22 18:25:00,
2013-10-22 13:26:00,133.6,58.9,29.89,North,0,0.0,0.0,1,0.00,,,0.00,WUHU216HW,2013-10-22 18:26:00,
2013-10-22 13:31:00,133.6,58.9,29.89,North,0,0.0,0.0,1,0.00,,,0.00,WUHU216HW,2013-10-22 18:31:00,
2013-10-22 13:40:00,130.5,56.6,29.89,North,0,0.0,0.0,1,0.00,,,0.00,WUHU216HW,2013-10-22 18:40:00,
2013-10-22 13:45:00,107.3,39.3,29.88,North,0,0.0,0.0,1,0.00,,,0.00,WUHU216HW,2013-10-22 18:45:00,
2013-10-22 13:50:00,102.4,35.7,29.88,North,0,0.0,0.0,1,0.00,,,0.00,WUHU216HW,2013-10-22 18:50:00,
2013-10-22 13:55:00,89.8,26.1,29.88,North,0,0.0,0.0,1,0.00,,,0.00,WUHU216HW,2013-10-22 18:55:00,
2013-10-22 14:00:00,84.6,22.1,29.88,North,0,0.0,0.0,1,0.00,,,0.00,WUHU216HW,2013-10-22 19:00:00,
2013-10-22 14:05:00,82.1,20.3,29.88,North,0,0.0,0.0,1,0.00,,,0.00,WUHU216HW,2013-10-22 19:05:00,
2013-10-22 14:10:00,78.8,17.6,29.88,North,0,0.0,0.0,1,0.00,,,0.00,WUHU216HW,2013-10-22 19:10:00,
2013-10-22 14:15:00,74.2,14.2,29.87,North,0,0.0,0.0,1,0.00,,,0.00,WUHU216HW,2013-10-22 19:15:00,
2013-10-22 14:20:00,73.1,13.4,29.87,North,0,0.0,0.0,1,0.00,,,0.00,WUHU216HW,2013-10-22 19:20:00,
2013-10-22 14:25:00,71.3,12.0,29.87,North,0,0.0,0.0,1,0.00,,,0.00,WUHU216HW,2013-10-22 19:25:00,
2013-10-22 14:30:00,69.8,10.8,29.87,North,0,0.0,0.0,1,0.00,,,0.00,WUHU216HW,2013-10-22 19:30:00,
2013-10-22 14:35:00,67.9,9.4,29.87,North,0,0.0,0.0,1,0.00,,,0.00,WUHU216HW,2013-10-22 19:35:00,
2013-10-22 14:40:00,121.5,50.0,29.87,North,0,0.0,0.0,1,0.00,,,0.00,WUHU216HW,2013-10-22 19:40:00,
2013-10-22 14:45:00,133.4,58.8,29.87,North,0,0.0,0.0,1,0.00,,,0.00,WUHU216HW,2013-10-22 19:45:00,
2013-10-22 14:50:00,133.4,58.8,29.87,North,0,0.0,0.0,1,0.00,,,0.00,WUHU216HW,2013-10-22 19:50:00,
2013-10-22 14:55:00,115.9,45.7,29.87,North,0,0.0,0.0,1,0.00,,,0.00,WUHU216HW,2013-10-22 19:55:00,
2013-10-22 15:00:00,93.6,28.9,29.87,North,0,0.0,0.0,1,0.00,,,0.00,WUHU216HW,2013-10-22 20:00:00,
2013-10-22 15:05:00,90.9,26.9,29.87,North,0,0.0,0.0,1,0.00,,,0.00,WUHU216HW,2013-10-22 20:05:00,
2013-10-22 15:10:00,81.7,20.0,29.87,North,0,0.0,0.0,1,0.00,,,0.00,WUHU216HW,2013-10-22 20:10:00,
2013-10-22 15:15:00,78.5,17.4,29.87,North,0,0.0,0.0,1,0.00,,,0.00,WUHU216HW,2013-10-22 20:15:00,
2013-10-22 15:20:00,75.6,15.2,29.87,North,0,0.0,0.0,1,0.00,,,0.00,WUHU216HW,2013-10-22 20:20:00,
2013-10-22 15:25:00,71.1,11.8,29.87,North,0,0.0,0.0,1,0.00,,,0.00,WUHU216HW,2013-10-22 20:25:00,
2013-10-22 15:30:00,69.3,10.5,29.87,North,0,0.0,0.0,1,0.00,,,0.00,WUHU216HW,2013-10-22 20:30:00,
2013-10-22 15:35:00,68.6,9.9,29.87,North,0,0.0,0.0,1,0.00,,,0.00,WUHU216HW,2013-10-22 20:35:00,
2013-10-22 15:40:00,66.2,8.1,29.87,North,0,0.0,0.0,1,0.00,,,0.00,WUHU216HW,2013-10-22 20:40:00,
2013-10-22 15:45:00,65.2,7.2,29.87,North,0,0.0,0.0,1,0.00,,,0.00,WUHU216HW,2013-10-22 20:45:00,
2013-10-22 15:50:00,64.4,6.7,29.87,North,0,0.0,0.0,1,0.00,,,0.00,WUHU216HW,2013-10-22 20:50:00,
2013-10-22 15:55:00,64.5,-24.9,29.87,North,0,0.0,0.0,1,0.00,,,0.00,WUHU216HW,2013-10-22 20:55:00,
2013-10-22 16:00:00,111.6,42.6,29.87,North,0,0.0,0.0,1,0.00,,,0.00,WUHU216HW,2013-10-22 21:00:00,
2013-10-22 16:05:00,126.9,53.9,29.87,North,0,0.0,0.0,1,0.00,,,0.00,WUHU216HW,2013-10-22 21:05:00,
2013-10-22 16:10:00,124.7,52.3,29.87,North,0,0.0,0.0,1,0.00,,,0.00,WUHU216HW,2013-10-22 21:10:00,
2013-10-22 16:15:00,94.3,29.5,29.87,North,0,0.0,0.0,1,0.00,,,0.00,WUHU216HW,2013-10-22 21:15:00,
2013-10-22 16:20:00,82.4,20.5,29.88,North,0,0.0,0.0,1,0.00,,,0.00,WUHU216HW,2013-10-22 21:20:00,
2013-10-22 16:25:00,76.1,15.7,29.88,North,0,0.0,0.0,1,0.00,,,0.00,WUHU216HW,2013-10-22 21:25:00,
2013-10-22 16:30:00,70.6,11.3,29.88,North,0,0.0,0.0,1,0.00,,,0.00,WUHU216HW,2013-10-22 21:30:00,
2013-10-22 16:35:00,68.4,9.8,29.88,North,0,0.0,0.0,1,0.00,,,0.00,WUHU216HW,2013-10-22 21:35:00,
2013-10-22 16:40:00,66.2,8.1,29.88,North,0,0.0,0.0,1,0.00,,,0.00,WUHU216HW,2013-10-22 21:40:00,
2013-10-22 16:45:00,65.2,7.2,29.88,North,0,0.0,0.0,1,0.00,,,0.00,WUHU216HW,2013-10-22 21:45:00,
2013-10-22 16:50:00,63.0,5.7,29.88,North,0,0.0,0.0,1,0.00,,,0.00,WUHU216HW,2013-10-22 21:50:00,
2013-10-22 16:55:00,61.7,4.7,29.88,North,0,0.0,0.0,1,0.00,,,0.00,WUHU216HW,2013-10-22 21:55:00,
2013-10-22 17:00:00,60.8,4.0,29.88,North,0,0.0,0.0,3,0.00,,,0.00,WUHU216HW,2013-10-22 22:00:00,
2013-10-22 17:05:00,60.1,3.4,29.89,North,0,0.0,0.0,3,0.00,,,0.00,WUHU216HW,2013-10-22 22:05:00,
2013-10-22 17:10:00,84.8,22.2,29.89,North,0,0.0,0.0,1,0.00,,,0.00,WUHU216HW,2013-10-22 22:10:00,
2013-10-22 17:15:00,100.8,34.5,29.89,North,0,0.0,0.0,1,0.00,,,0.00,WUHU216HW,2013-10-22 22:15:00,
2013-10-22 17:20:00,133.2,58.6,29.89,North,0,0.0,0.0,1,0.00,,,0.00,WUHU216HW,2013-10-22 22:20:00,
2013-10-22 17:25:00,133.2,58.6,29.89,North,0,0.0,0.0,1,0.00,,,0.00,WUHU216HW,2013-10-22 22:25:00,
2013-10-22 17:30:00,110.0,4.0,29.89,North,0,0.0,0.0,1,0.00,,,0.00,WUHU216HW,2013-10-22 22:30:00,
2013-10-22 17:35:00,94.0,29.2,29.89,North,0,0.0,0.0,1,0.00,,,0.00,WUHU216HW,2013-10-22 22:35:00,
2013-10-22 17:40:00,81.7,20.0,29.89,North,0,0.0,0.0,1,0.00,,,0.00,WUHU216HW,2013-10-22 22:40:00,
2013-10-22 17:45:00,85.8,-11.3,29.89,North,0,0.0,0.0,1,0.00,,,0.00,WUHU216HW,2013-10-22 22:45:00,
2013-10-22 17:50:00,74.0,14.0,29.89,North,0,0.0,0.0,1,0.00,,,0.00,WUHU216HW,2013-10-22 22:50:00,
2013-10-22 17:55:00,74.0,14.0,29.89,North,0,0.0,0.0,1,0.00,,,0.00,WUHU216HW,2013-10-22 22:55:00,
2013-10-22 18:00:00,68.4,9.8,29.89,North,0,0.0,0.0,7,0.00,,,0.00,WUHU216HW,2013-10-22 23:00:00,
2013-10-22 18:05:00,67.1,13.6,29.89,North,0,0.0,0.0,13,0.00,,,0.00,WUHU216HW,2013-10-22 23:05:00,
2013-10-22 18:10:00,65.2,18.4,29.89,North,0,0.0,0.0,17,0.00,,,0.00,WUHU216HW,2013-10-22 23:10:00,
2013-10-22 18:15:00,63.0,28.2,29.89,North,0,0.0,0.0,27,0.00,,,0.00,WUHU216HW,2013-10-22 23:15:00,
2013-10-22 18:20:00,62.6,28.8,29.89,North,0,0.0,0.0,28,0.00,,,0.00,WUHU216HW,2013-10-22 23:20:00,
2013-10-22 18:25:00,61.7,32.9,29.89,North,0,0.0,0.0,34,0.00,,,0.00,WUHU216HW,2013-10-22 23:25:00,
2013-10-22 18:28:00,126.5,53.6,29.89,North,0,0.0,0.0,1,0.00,,,0.00,WUHU216HW,2013-10-22 23:28:00,
2013-10-22 18:30:00,126.5,53.6,29.89,North,0,0.0,0.0,1,0.00,,,0.00,WUHU216HW,2013-10-22 23:30:00,
2013-10-22 18:35:00,126.5,53.6,29.89,North,0,0.0,0.0,1,0.00,,,0.00,WUHU216HW,2013-10-22 23:35:00,
2013-10-22 18:57:00,57.2,35.5,29.90,North,0,0.0,0.0,44,0.00,,,0.00,WUHU216HW,2013-10-22 23:57:00,
2013-10-22 19:02:00,51.8,31.1,29.89,North,0,0.0,0.0,45,0.00,,,0.00,WUHU216HW,2013-10-23 00:02:00,
2013-10-22 19:07:00,48.6,29.2,29.89,North,0,0.0,0.0,47,0.00,,,0.00,WUHU216HW,2013-10-23 00:07:00,
2013-10-22 19:12:00,46.6,28.5,29.89,North,0,0.0,0.0,49,0.00,,,0.00,WUHU216HW,2013-10-23 00:12:00,
2013-10-22 19:17:00,45.0,28.5,29.89,North,0,0.0,0.0,52,0.00,,,0.00,WUHU216HW,2013-10-23 00:17:00,
2013-10-22 19:22:00,44.1,28.0,29.90,North,0,0.0,0.0,53,0.00,,,0.00,WUHU216HW,2013-10-23 00:22:00,
2013-10-22 19:27:00,43.4,27.8,29.89,North,0,0.0,0.0,54,0.00,,,0.00,WUHU216HW,2013-10-23 00:27:00,
2013-10-22 19:32:00,42.8,27.7,29.90,North,0,0.0,0.0,55,0.00,,,0.00,WUHU216HW,2013-10-23 00:32:00,
2013-10-22 19:37:00,42.3,27.6,29.90,North,0,0.0,0.0,56,0.00,,,0.00,WUHU216HW,2013-10-23 00:37:00,
2013-10-22 19:42:00,41.9,27.7,29.90,North,0,0.0,0.0,57,0.00,,,0.00,WUHU216HW,2013-10-23 00:42:00,
2013-10-22 19:47:00,41.6,27.9,29.90,North,0,0.0,0.0,58,0.00,,,0.00,WUHU216HW,2013-10-23 00:47:00,
2013-10-22 19:52:00,41.4,28.2,29.90,North,0,0.0,0.0,59,0.00,,,0.00,WUHU216HW,2013-10-23 00:52:00,
2013-10-22 19:57:00,41.0,27.8,29.90,North,0,0.0,0.0,59,0.00,,,0.00,WUHU216HW,2013-10-23 00:57:00,
2013-10-22 20:02:00,40.9,28.1,29.90,North,0,0.0,0.0,60,0.00,,,0.00,WUHU216HW,2013-10-23 01:02:00,
2013-10-22 20:07:00,40.7,28.3,29.90,North,0,0.0,0.0,61,0.00,,,0.00,WUHU216HW,2013-10-23 01:07:00,
2013-10-22 20:12:00,40.5,28.4,29.90,North,0,0.0,0.0,62,0.00,,,0.00,WUHU216HW,2013-10-23 01:12:00,
2013-10-22 20:17:00,40.3,28.3,29.91,North,0,0.0,0.0,62,0.00,,,0.00,WUHU216HW,2013-10-23 01:17:00,
2013-10-22 20:22:00,40.3,28.3,29.91,North,0,0.0,0.0,62,0.00,,,0.00,WUHU216HW,2013-10-23 01:22:00,
2013-10-22 20:27:00,40.3,28.3,29.91,North,0,0.0,0.0,62,0.00,,,0.00,WUHU216HW,2013-10-23 01:27:00,
2013-10-22 20:32:00,40.1,28.1,29.91,North,0,0.0,0.0,62,0.00,,,0.00,WUHU216HW,2013-10-23 01:32:00,
2013-10-22 20:37:00,40.1,28.5,29.91,North,0,0.0,0.0,63,0.00,,,0.00,WUHU216HW,2013-10-23 01:37:00,
2013-10-22 20:42:00,40.0,28.4,29.91,North,0,0.0,0.0,63,0.00,,,0.00,WUHU216HW,2013-10-23 01:42:00,
2013-10-22 20:47:00,40.0,28.4,29.91,North,0,0.0,0.0,63,0.00,,,0.00,WUHU216HW,2013-10-23 01:47:00,
2013-10-22 20:52:00,40.0,28.4,29.91,North,0,0.0,0.0,63,0.00,,,0.00,WUHU216HW,2013-10-23 01:52:00,
2013-10-22 20:57:00,40.0,28.4,29.91,North,0,0.0,0.0,63,0.00,,,0.00,WUHU216HW,2013-10-23 01:57:00,
2013-10-22 21:02:00,40.0,28.4,29.91,North,0,0.0,0.0,63,0.00,,,0.00,WUHU216HW,2013-10-23 02:02:00,
2013-10-22 21:07:00,40.0,28.4,29.91,North,0,0.0,0.0,63,0.00,,,0.00,WUHU216HW,2013-10-23 02:07:00,
2013-10-22 21:12:00,40.0,28.4,29.91,North,0,0.0,0.0,63,0.00,,,0.00,WUHU216HW,2013-10-23 02:12:00,
2013-10-22 21:17:00,40.0,28.4,29.91,North,0,0.0,0.0,63,0.00,,,0.00,WUHU216HW,2013-10-23 02:17:00,
2013-10-22 21:22:00,40.0,28.4,29.91,North,0,0.0,0.0,63,0.00,,,0.00,WUHU216HW,2013-10-23 02:22:00,
2013-10-22 21:27:00,39.8,28.2,29.91,North,0,0.0,0.0,63,0.00,,,0.00,WUHU216HW,2013-10-23 02:27:00,
2013-10-22 21:32:00,39.8,28.2,29.91,North,0,0.0,0.0,63,0.00,,,0.00,WUHU216HW,2013-10-23 02:32:00,
2013-10-22 21:37:00,39.8,28.2,29.91,North,0,0.0,0.0,63,0.00,,,0.00,WUHU216HW,2013-10-23 02:37:00,
2013-10-22 21:42:00,39.8,27.7,29.91,North,0,0.0,0.0,62,0.00,,,0.00,WUHU216HW,2013-10-23 02:42:00,
2013-10-22 21:47:00,39.6,28.0,29.91,North,0,0.0,0.0,63,0.00,,,0.00,WUHU216HW,2013-10-23 02:47:00,
2013-10-22 21:52:00,39.6,27.5,29.91,North,0,0.0,0.0,62,0.00,,,0.00,WUHU216HW,2013-10-23 02:52:00,
2013-10-22 21:57:00,39.6,28.0,29.91,North,0,0.0,0.0,63,0.00,,,0.00,WUHU216HW,2013-10-23 02:57:00,
2013-10-22 22:02:00,39.6,28.0,29.91,North,0,0.0,0.0,63,0.00,,,0.00,WUHU216HW,2013-10-23 03:02:00,
2013-10-22 22:07:00,39.6,28.0,29.91,North,0,0.0,0.0,63,0.00,,,0.00,WUHU216HW,2013-10-23 03:07:00,
2013-10-22 22:12:00,39.4,27.8,29.92,North,0,0.0,0.0,63,0.00,,,0.00,WUHU216HW,2013-10-23 03:12:00,
2013-10-22 22:17:00,39.2,27.6,29.91,North,0,0.0,0.0,63,0.00,,,0.00,WUHU216HW,2013-10-23 03:17:00,
2013-10-22 22:22:00,39.2,27.6,29.91,North,0,0.0,0.0,63,0.00,,,0.00,WUHU216HW,2013-10-23 03:22:00,
2013-10-22 22:27:00,39.2,27.6,29.91,North,0,0.0,0.0,63,0.00,,,0.00,WUHU216HW,2013-10-23 03:27:00,
2013-10-22 22:32:00,39.1,27.5,29.91,North,0,0.0,0.0,63,0.00,,,0.00,WUHU216HW,2013-10-23 03:32:00,
2013-10-22 22:37:00,38.9,27.6,29.92,North,0,0.0,0.0,64,0.00,,,0.00,WUHU216HW,2013-10-23 03:37:00,
2013-10-22 22:42:00,38.7,27.5,29.91,North,0,0.0,0.0,64,0.00,,,0.00,WUHU216HW,2013-10-23 03:42:00,
2013-10-22 22:47:00,38.5,27.4,29.92,North,0,0.0,0.0,64,0.00,,,0.00,WUHU216HW,2013-10-23 03:47:00,
2013-10-22 22:52:00,38.3,27.5,29.91,North,0,0.0,0.0,65,0.00,,,0.00,WUHU216HW,2013-10-23 03:52:00,
2013-10-22 22:57:00,38.0,27.6,29.91,North,0,0.0,0.0,66,0.00,,,0.00,WUHU216HW,2013-10-23 03:57:00,
2013-10-22 23:01:00,37.8,27.8,29.91,North,0,0.0,0.0,67,0.00,,,0.00,WUHU216HW,2013-10-23 04:01:00,
2013-10-22 23:06:00,37.4,27.5,29.91,North,0,0.0,0.0,67,0.00,,,0.00,WUHU216HW,2013-10-23 04:06:00,
2013-10-22 23:11:00,37.1,27.6,29.91,North,0,0.0,0.0,68,0.00,,,0.00,WUHU216HW,2013-10-23 04:11:00,
2013-10-22 23:16:00,36.7,27.6,29.91,North,0,0.0,0.0,69,0.00,,,0.00,WUHU216HW,2013-10-23 04:16:00,
2013-10-22 23:21:00,36.4,27.9,29.91,North,0,0.0,0.0,71,0.00,,,0.00,WUHU216HW,2013-10-23 04:21:00,
2013-10-22 23:26:00,36.0,28.2,29.92,North,0,0.0,0.0,73,0.00,,,0.00,WUHU216HW,2013-10-23 04:26:00,
2013-10-22 23:31:00,35.6,27.8,29.92,North,0,0.0,0.0,73,0.00,,,0.00,WUHU216HW,2013-10-23 04:31:00,
2013-10-22 23:36:00,35.1,27.3,29.92,North,0,0.0,0.0,73,0.00,,,0.00,WUHU216HW,2013-10-23 04:36:00,
2013-10-22 23:41:00,34.9,27.4,29.92,North,0,0.0,0.0,74,0.00,,,0.00,WUHU216HW,2013-10-23 04:41:00,
2013-10-22 23:46:00,34.6,27.4,29.92,North,0,0.0,0.0,75,0.00,,,0.00,WUHU216HW,2013-10-23 04:46:00,
2013-10-22 23:51:00,34.2,26.6,29.92,North,0,0.0,0.0,74,0.00,,,0.00,WUHU216HW,2013-10-23 04:51:00,
2013-10-22 23:56:00,34.0,27.2,29.92,North,0,0.0,0.0,76,0.00,,,0.00,WUHU216HW,2013-10-23 04:56:00,